Regional Weather Roundup
Issued by NWS

Home | Current Version | Previous Version | Text Only | Print | Product List | Glossary On
Versions: 1 2 3 4 5 6 7 8 9 10 11 12 13 14 15 16 17 18 19 20 21 22 23 24 25 26 27 28 29 30 31 32 33 34 35 36 37 38 39 40 41 42 43 44 45 46 47 48 49 50
000
ASUS43 KDTX 031310
RWRMI
MICHIGAN HOURLY REGIONAL WEATHER ROUNDUP
NATIONAL WEATHER SERVICE DETROIT/PONTIAC MI
900 AM EDT MON AUG 03 2015

NOTE: "FAIR" INDICATES FEW OR NO CLOUDS BELOW 12,000 FEET WITH NO
SIGNIFICANT WEATHER AND/OR OBSTRUCTION TO VISIBILITY.

MIZ047>049-052>055-059>063-066>070-074>076-081>083-031400-
SOUTHEAST LOWER MICHIGAN

CITY           SKY/WX    TMP DP  RH WIND       PRES   REMARKS
ADRIAN         CLOUDY    64  61  90 W10       29.81S
ALMA           MOSUNNY   65  64  95 SW6       29.78R
ANN ARBOR      MOSUNNY   67  63  87 W13       29.79S
BAD AXE        PTSUNNY   65  61  86 W8        29.75S
CARO           CLOUDY    64  61  92 W5        29.76R
DETROIT CITY   PTSUNNY   67  61  81 W12       29.78R
DETROIT        MOSUNNY   69  62  78 SW13      29.79S
FLINT          MOSUNNY   69  61  75 SW7       29.78R
GROSSE ILE     MOSUNNY   70  63  78 W8        29.78R
HILLSDALE      CLOUDY    65  65 100 SW3       29.82R
HOWELL         CLOUDY    66  64  93 SW8       29.79S

CITY           SKY/WX    TMP DP  RH WIND       PRES   REMARKS
JACKSON        PTSUNNY   65  62  90 SW9       29.81R
LAMBERTVILLE   MOSUNNY   68  63  83 W7        29.80S
LANSING        PTSUNNY   67  61  81 W8        29.80R
LAPEER         PTSUNNY   65  62  89 W5        29.77S
MASON          CLOUDY    65  62  89 SW6       29.80R
MONROE         MOSUNNY   68  63  84 W7G17     29.79R
MT. CLEMENS    PTSUNNY   67  63  84 W12       29.76R
PONTIAC        CLOUDY    65  63  93 SW7       29.78R
PORT HURON     PTSUNNY   66  63  88 W3        29.76R
TRI CITIES     MOSUNNY   66  62  87 SW7       29.77R
MIDLAND        FAIR      64  62  94 W5        29.76R
TROY           CLOUDY    67  64  87 MISG      29.80R
SAGINAW HB     PTSUNNY   63  61  94 SW6       29.76S
$$
MIZ043>046-050>051-056>058-064>065-071>073-077>080-031400-
SOUTHWEST LOWER MICHIGAN

CITY           SKY/WX    TMP DP  RH WIND       PRES   REMARKS
BATTLE CREEK   CLOUDY    66  62  87 SW9       29.82R
BENTON HARBOR  SUNNY     69  65  86 CALM      29.80R
BIG RAPIDS     FOG       62  61  98 CALM      29.78R VSB 1/4
COLDWATER      CLOUDY    65  63  91 SW5       29.82R
FREMONT        PTSUNNY   65  65 100 W3        29.79R
HOLLAND        MOSUNNY   71  66  84 W5        29.81R
GRAND RAPIDS   PTSUNNY   65  64  97 SW6       29.80R FOG
IONIA          CLOUDY    64  64  99 W3        29.79R FOG
KALAMAZOO      PTSUNNY   67  63  87 S5        29.81R
LUDINGTON      SUNNY     66  62  86 NW7       29.78R
MARSHALL       CLOUDY    66  63  89 SW6       29.81R
MOUNT PLEASANT MOSUNNY   67  63  87 W5        29.76S
MUSKEGON       MOSUNNY   71  64  78 W7        29.79R
SOUTH HAVEN    PTSUNNY   69  64  84 W7        29.81R
$$
MIZ016>042-031400-
NORTHERN LOWER MICHIGAN

CITY           SKY/WX    TMP DP  RH WIND       PRES   REMARKS
ALPENA         MOSUNNY   66  60  81 VRB6      29.71S
BEAVER ISLAND  PTSUNNY   64  57  77 NW6       29.73S HAZE
BELLAIRE       CLOUDY    66  64  93 W3        29.73R
CADILLAC       CLOUDY    63  63 100 W8        29.76S
CHARLEVOIX     SUNNY     67  57  72 W9        29.76R
FRANKFORT      CLOUDY    64  63  97 NW5       29.75S
GAYLORD        PTSUNNY   64  62  93 SW10      29.74R
GRAYLING       CLOUDY    61  60  97 W7        29.75S
HARBOR SPRINGS SUNNY     65  58  78 W5        29.72R
HOUGHTON LAKE  CLOUDY    60  58  92 W7        29.77R
MANISTEE       SUNNY     63  61  94 CALM      29.78R
OSCODA         SUNNY     66  61  84 W8        29.72R
PELLSTON       SUNNY     65  59  81 W7        29.72R
ROGERS CITY    MOSUNNY   64  62  93 W9        29.71R
TRAVERSE CITY  PTSUNNY   63  62  97 SW3       29.73R
$$
MIZ007>008-015-031400-
EASTERN UPPER MICHIGAN

CITY           SKY/WX    TMP DP  RH WIND       PRES   REMARKS
KINROSS        MOSUNNY   57  55  94 NW7       29.69S
MACKINAC ISLAN   N/A     60  56  87 NW5       29.70S
NEWBERRY       PTSUNNY   59  55  89 W6        29.71R
S. S. MARIE    PTSUNNY   60  54  80 W7        29.68S
MUNISING         N/A     64  53  67 NW9       29.70S
$$
MIZ004>006-011>014-085-031400-
CENTRAL UPPER MICHIGAN

CITY           SKY/WX    TMP DP  RH WIND       PRES   REMARKS
MANISTIQUE     PTSUNNY   61  54  77 NW7       29.71S
ESCANABA       SUNNY     61  54  77 W8        29.72S
MENOMINEE      PTSUNNY   61  52  72 CALM      29.75S
SAWYER-GWINN   MOSUNNY   59  52  77 W6        29.73S
$$
MIZ001>003-009>011-084-031400-
WESTERN UPPER MICHIGAN

CITY           SKY/WX    TMP DP  RH WIND       PRES   REMARKS
IRON MOUNTAIN  SUNNY     63  51  65 VRB7      29.74S
HOUGHTON       CLOUDY    59  51  75 W6        29.71R
COPPER HARBOR    N/A     61  51  70 NW10G20   29.69R
IRONWOOD       PTSUNNY   59  50  72 W9        29.75S
$$

ABBREVIATIONS USED IN REMARKS
   TC - TEMPERATURE IN CELSIUS
  WCI - WIND CHILL INDEX
   HX - HEAT INDEX
  VSB - VISIBILITY



USA.gov is the U.S. government's official web portal to all federal, state and local government web resources and services.